Location: Puketoi
(40.5833°S, 176.0167°E)
Time: 14:15:09
(UTC+00:00)

Meteor 1-16 Rocket - Pass Details

Date: 08 February 2023
Orbit: 789 x 907 km, 81.2° (Epoch: 30 March)

Event Time Altitude Azimuth Distance (km) Brightness Sun altitude
Rises 15:18:18 0° 194° (SSW) 3,331 7.7 -22.2°
Reaches altitude 10° 15:20:43 10° 198° (SSW) 2,402 6.9 -21.8°
Maximum altitude 15:26:00 57° 275° (W) 959 4.2 -21.1°
Enters shadow 15:27:30 43° 327° (NNW) 1,147 4.4 -20.9°
